Fulton, NY

9:40 PM EDT on October 18, 2019 (GMT -0400)
Oswego County

Weather History for KFZY - May, 2019

Change the Weather History Date:

Friday, May 3, 2019

  Actual Average (WUND) Record (WUND)
Temperature  
Mean Temperature 50 °F -  
Max Temperature 60 °F - - (-1)
Min Temperature 44 °F - - (-1)
Degree Days  
Heating Degree Days 14    
Moisture  
Dew Point 46 °F    
Average Humidity 84    
Maximum Humidity 90    
Minimum Humidity 70    
Precipitation  
Precipitation 0.36 in - - ()
Sea Level Pressure  
Sea Level Pressure 30.00 in    
Wind  
Wind Speed 5 mph (NW)    
Max Wind Speed 15 mph    
Max Gust Speed -    
Visibility 10 miles    
Events Rain    
Averages and records for this station are not official NWS values.
T = Trace of Precipitation, MM = Missing Value Source: NWS Daily Summary

Daily Weather History Graph

Daily Weather History Graph

Search for Another Location

Airport or City:

Astronomy

May. 03, 2019 Rise Set
Actual Time 5:56 AM EDT 8:09 PM EDT
Civil Twilight 5:24 AM EDT 8:40 PM EDT
Nautical Twilight 4:45 AM EDT 9:19 PM EDT
Astronomical Twilight 4:03 AM EDT 10:03 PM EDT
Moon 5:41 AM EDT (5/3) 6:50 PM EDT (5/3)
Length of Visible Light 15h 16m
Length of Day
14h 13m
Waning Crescent, 2% of the Moon is Illuminated
May 3
Waning Crescent
May 4
New
May 11
First Quarter
May 18
Full
May 26
Last Quarter

Hourly Weather History & Observations

Time (EDT) Temp. Windchill Dew Point Humidity Pressure Visibility Wind Dir Wind Speed Gust Speed Precip Events Conditions
12:54 AM 46.0 °F 44.8 °F 41.0 °F 83% 30.12 in 10.0 mi NNE 3.5 mph - N/A   Overcast
1:54 AM 44.1 °F 41.5 °F 39.9 °F 85% 30.09 in 10.0 mi ENE 4.6 mph - N/A   Scattered Clouds
2:54 AM 46.0 °F 44.8 °F 42.1 °F 86% 30.06 in 10.0 mi NE 3.5 mph - N/A   Mostly Cloudy
3:03 AM 46.0 °F 43.9 °F 42.1 °F 86% 30.05 in 10.0 mi NNE 4.6 mph - N/A   Mostly Cloudy
3:54 AM 46.0 °F - 42.1 °F 86% 30.04 in 10.0 mi Calm Calm - N/A   Overcast
4:20 AM 46.9 °F - 43.0 °F 86% 30.02 in 10.0 mi ENE 3.5 mph - 0.00 in Rain Light Rain
4:54 AM 46.9 °F - 43.0 °F 86% 30.02 in 10.0 mi NNE 5.8 mph - 0.01 in Rain Light Rain
5:38 AM 48.0 °F - 44.1 °F 86% 30.01 in 10.0 mi North 3.5 mph - 0.01 in Rain Light Rain
5:54 AM 46.9 °F - 44.1 °F 90% 30.01 in 10.0 mi NNE 4.6 mph - 0.02 in Rain Light Rain
6:54 AM 46.9 °F - 44.1 °F 90% 29.99 in 10.0 mi ENE 3.5 mph - 0.09 in Rain Light Rain
7:03 AM 46.9 °F - 44.1 °F 90% 29.99 in 10.0 mi Calm Calm - 0.01 in Rain Light Rain
7:35 AM 48.0 °F - 44.1 °F 86% 29.98 in 10.0 mi Calm Calm - 0.05 in Rain Light Rain
7:54 AM 48.0 °F - 45.0 °F 89% 29.98 in 10.0 mi Calm Calm - 0.06 in Rain Light Rain
8:18 AM 48.9 °F - 46.0 °F 90% 29.98 in 10.0 mi Calm Calm - 0.00 in Rain Light Rain
8:54 AM 51.1 °F - 48.0 °F 89% 29.99 in 10.0 mi South 3.5 mph - 0.05 in Rain Heavy Rain
9:29 AM 52.0 °F - 48.9 °F 89% 29.97 in 10.0 mi Variable 3.5 mph - 0.05 in Rain Heavy Rain
9:54 AM 54.0 °F - 50.0 °F 86% 29.98 in 10.0 mi South 4.6 mph - 0.06 in Rain Light Rain
10:02 AM 54.0 °F - 50.0 °F 86% 29.98 in 10.0 mi SSW 4.6 mph - 0.00 in   Overcast
10:25 AM 54.0 °F - 50.0 °F 86% 29.98 in 10.0 mi West 4.6 mph - 0.00 in   Overcast
10:54 AM 55.0 °F - 51.1 °F 86% 29.99 in 10.0 mi WNW 5.8 mph - 0.00 in   Overcast
11:54 AM 55.0 °F - 51.1 °F 86% 29.99 in 10.0 mi West 5.8 mph - N/A   Overcast
12:07 PM 55.9 °F - 51.1 °F 84% 29.98 in 10.0 mi NW 5.8 mph - N/A   Overcast
12:54 PM 57.0 °F - 51.1 °F 81% 29.99 in 10.0 mi West 15.0 mph - N/A   Overcast
1:29 PM 57.9 °F - 50.0 °F 75% 29.98 in 10.0 mi WNW 10.4 mph - N/A   Overcast
1:54 PM 57.9 °F - 50.0 °F 75% 29.98 in 10.0 mi WNW 9.2 mph - N/A   Overcast
2:43 PM 57.9 °F - 48.0 °F 70% 29.97 in 10.0 mi NNW 8.1 mph - N/A   Mostly Cloudy
2:54 PM 57.0 °F - 48.9 °F 74% 29.98 in 10.0 mi WNW 10.4 mph - N/A   Mostly Cloudy
3:54 PM 57.0 °F - 48.0 °F 72% 29.97 in 10.0 mi NW 9.2 mph - N/A   Overcast
4:54 PM 53.1 °F - 46.0 °F 77% 29.99 in 10.0 mi NW 9.2 mph - N/A   Overcast
5:50 PM 50.0 °F - 44.6 °F 82% 29.98 in 10.0 mi WNW 8.1 mph - N/A   Overcast
5:54 PM 50.0 °F - 45.0 °F 83% 30.00 in 10.0 mi WNW 10.4 mph - N/A   Overcast
6:07 PM 50.0 °F - 45.0 °F 83% 29.98 in 10.0 mi NW 8.1 mph - N/A   Overcast
6:29 PM 50.0 °F - 45.0 °F 83% 29.99 in 10.0 mi NW 6.9 mph - 0.00 in Rain Light Rain
6:54 PM 48.9 °F - 45.0 °F 86% 30.00 in 10.0 mi NNW 5.8 mph - 0.02 in Rain Light Rain
7:06 PM 48.9 °F - 45.0 °F 86% 29.99 in 10.0 mi NNW 6.9 mph - 0.01 in Rain Light Rain
7:54 PM 48.0 °F - 44.1 °F 86% 30.00 in 10.0 mi WNW 4.6 mph - 0.05 in Rain Light Rain
8:54 PM 48.0 °F - 44.1 °F 86% 30.01 in 10.0 mi WNW 5.8 mph - 0.00 in   Overcast
9:54 PM 46.0 °F 41.9 °F 43.0 °F 89% 30.02 in 10.0 mi NW 8.1 mph - N/A   Overcast
10:54 PM 45.0 °F 41.8 °F 42.1 °F 90% 30.00 in 10.0 mi NNW 5.8 mph - N/A   Overcast
11:54 PM 46.0 °F 43.9 °F 43.0 °F 89% 30.00 in 10.0 mi SW 4.6 mph - N/A   Overcast